Weather History for KY19 - February, 2013

Change the Weather History Date:

Sunday, February 10, 2013

  Actual Average (KBIS) Record (KBIS)
Temperature  
Mean Temperature 22 °F 16 °F  
Max Temperature 26 °F 27 °F 54 °F (1918)
Min Temperature 17 °F 6 °F -31 °F (1899)
Degree Days  
Heating Degree Days 44 49  
Month to date heating degree days 497  
Since 1 July heating degree days 5615  
Cooling Degree Days 0 0  
Month to date cooling degree days 0  
Year to date cooling degree days 0  
Moisture  
Dew Point 22 °F    
Average Humidity 100    
Maximum Humidity 100    
Minimum Humidity 93    
Precipitation  
Precipitation 0.00 in 0.01 in 0.22 in (1938)
Month to date precipitation 0.13  
Year to date precipitation 0.56  
Snow  
Snow 0.00 in 0.20 in 3.00 in (1992)
Month to date snowfall 2.5  
Since 1 July snowfall 31.9  
Snow Depth -    
Sea Level Pressure  
Sea Level Pressure 29.78 in    
Wind  
Wind Speed 14 mph (NNW)    
Max Wind Speed 32 mph    
Max Gust Speed 40 mph    
Visibility 6 miles    
Events Fog , Rain    
T = Trace of Precipitation, MM = Missing Value Source: NWS Daily Summary

Daily Weather History Graph

Daily Weather History Graph

Search for Another Location

Airport or City:

Trip Planner

Search our weather history database for the weather conditions in past years. The results will help you decide how hot, cold, wet, or windy it might be!

Date:

Astronomy

Feb. 10, 2013 Rise Set
Actual Time 7:54 AM CST 6:01 PM CST
Civil Twilight 7:23 AM CST 6:32 PM CST
Nautical Twilight 6:47 AM CST 7:08 PM CST
Astronomical Twilight 6:12 AM CST 7:43 PM CST
Moon 7:41 AM CST (2/10) 7:00 PM CST (2/10)
Length of Visible Light 11h 09m
Length of Day
10h 06m
New Moon, 0% of the Moon is Illuminated
Feb 10
New Moon
Feb 17
First Quarter
Feb 25
Full
Mar 4
Last Quarter
Mar 11
New

Hourly Weather History & Observations

Time (CST) Temp. Windchill Dew Point Humidity Pressure Visibility Wind Dir Wind Speed Gust Speed Precip Events Conditions
12:15 AM 21.2 °F 11.7 °F 21.2 °F 100% 29.77 in 0.2 mi NNW 8.1 mph - N/A Fog Light Freezing Fog
12:35 AM 21.2 °F 14.9 °F 21.2 °F 100% 29.78 in 0.5 mi ENE 4.6 mph - N/A Fog Light Freezing Fog
12:55 AM 21.2 °F 13.6 °F 21.2 °F 100% 29.78 in 0.2 mi North 5.8 mph - N/A Fog Light Freezing Fog
1:15 AM 21.2 °F 10.9 °F 21.2 °F 100% 29.78 in 0.5 mi North 9.2 mph - N/A Fog Light Freezing Fog
1:35 AM 21.2 °F 11.7 °F 21.2 °F 100% 29.77 in 0.2 mi NNE 8.1 mph - N/A Fog Light Freezing Fog
1:55 AM 19.4 °F 11.5 °F 19.4 °F 100% 29.75 in 0.2 mi NNE 5.8 mph - N/A Fog Light Freezing Fog
2:15 AM 19.4 °F 10.4 °F 19.4 °F 100% 29.75 in 0.2 mi North 6.9 mph - N/A Fog Light Freezing Fog
2:35 AM 19.4 °F 9.5 °F 19.4 °F 100% 29.74 in 0.2 mi North 8.1 mph - N/A Fog Light Freezing Fog
2:55 AM 19.4 °F 8.6 °F 19.4 °F 100% 29.74 in 0.2 mi NNW 9.2 mph - N/A Fog Light Freezing Fog
3:15 AM 19.4 °F 9.5 °F 19.4 °F 100% 29.74 in 2.0 mi North 8.1 mph - N/A   Overcast
3:35 AM 19.4 °F 12.8 °F 19.4 °F 100% 29.74 in 2.5 mi North 4.6 mph - N/A   Overcast
3:55 AM 19.4 °F 12.8 °F 19.4 °F 100% 29.74 in 0.5 mi North 4.6 mph - N/A Fog Light Freezing Fog
4:15 AM 19.4 °F 12.8 °F 19.4 °F 100% 29.74 in 2.5 mi East 4.6 mph - N/A   Overcast
4:35 AM 19.4 °F 12.8 °F 19.4 °F 100% 29.75 in 1.0 mi East 4.6 mph - N/A   Overcast
4:55 AM 19.4 °F 14.3 °F 19.4 °F 100% 29.74 in 0.8 mi NE 3.5 mph - N/A   Overcast
5:15 AM 19.4 °F 14.3 °F 19.4 °F 100% 29.73 in 2.5 mi NNE 3.5 mph - N/A   Overcast
5:35 AM 19.4 °F 12.8 °F 19.4 °F 100% 29.74 in 5.0 mi NE 4.6 mph - N/A   Overcast
5:55 AM 19.4 °F 11.5 °F 19.4 °F 100% 29.74 in 6.0 mi North 5.8 mph - N/A   Overcast
6:15 AM 19.4 °F 7.2 °F 19.4 °F 100% 29.74 in 4.0 mi NNW 11.5 mph - N/A   Overcast
6:35 AM 19.4 °F 6.6 °F 19.4 °F 100% 29.74 in 4.0 mi NNW 12.7 mph - N/A   Overcast
6:55 AM 19.4 °F 6.6 °F 19.4 °F 100% 29.75 in 4.0 mi NNW 12.7 mph - N/A   Overcast
7:15 AM 19.4 °F 5.5 °F 19.4 °F 100% 29.74 in 4.0 mi NNW 15.0 mph - N/A   Overcast
7:35 AM 19.4 °F 5.5 °F 19.4 °F 100% 29.74 in 5.0 mi NNW 15.0 mph - N/A   Overcast
7:55 AM 19.4 °F 7.2 °F 19.4 °F 100% 29.74 in 5.0 mi NNW 11.5 mph - N/A   Overcast
8:15 AM 19.4 °F 6.0 °F 19.4 °F 100% 29.74 in 9.0 mi North 13.8 mph - N/A   Scattered Clouds
8:35 AM 19.4 °F 5.0 °F 19.4 °F 100% 29.73 in 8.0 mi North 16.1 mph - N/A   Clear
8:55 AM 21.2 °F 7.8 °F 21.2 °F 100% 29.73 in 10.0 mi North 15.0 mph - N/A   Partly Cloudy
9:15 AM 21.2 °F 8.3 °F 21.2 °F 100% 29.73 in 10.0 mi North 13.8 mph - N/A   Mostly Cloudy
9:35 AM 21.2 °F 7.8 °F 21.2 °F 100% 29.73 in 10.0 mi NNW 15.0 mph - N/A   Overcast
9:55 AM 23.0 °F 9.2 °F 23.0 °F 100% 29.73 in 7.0 mi North 17.3 mph 24.2 mph N/A   Overcast
10:15 AM 23.0 °F 9.6 °F 23.0 °F 100% 29.73 in 6.0 mi North 16.1 mph - N/A   Overcast
10:35 AM 24.8 °F 11.5 °F 24.8 °F 100% 29.73 in 1.8 mi NNW 17.3 mph 23.0 mph N/A   Overcast
10:55 AM 24.8 °F 11.1 °F 24.8 °F 100% 29.72 in 1.2 mi NNW 18.4 mph 23.0 mph N/A   Overcast
11:15 AM 26.6 °F 13.1 °F 26.6 °F 100% 29.72 in 1.0 mi NNW 19.6 mph 26.5 mph N/A   Overcast
11:35 AM 26.6 °F 11.7 °F 26.6 °F 100% 29.72 in 1.0 mi NNW 24.2 mph 31.1 mph N/A   Overcast
11:55 AM 26.6 °F 10.6 °F 26.6 °F 100% 29.72 in 2.0 mi NNW 28.8 mph 33.4 mph N/A   Overcast
12:15 PM 26.6 °F 11.1 °F 26.6 °F 100% 29.72 in 5.0 mi North 26.5 mph 35.7 mph N/A   Overcast
12:35 PM 26.6 °F 11.1 °F 26.6 °F 100% 29.72 in 10.0 mi North 26.5 mph 33.4 mph N/A   Overcast
12:55 PM 26.6 °F 12.0 °F 26.6 °F 100% 29.71 in 10.0 mi North 23.0 mph 33.4 mph N/A   Overcast
1:15 PM 26.6 °F 12.0 °F 26.6 °F 100% 29.71 in 10.0 mi NNW 23.0 mph 32.2 mph N/A   Overcast
1:35 PM 26.6 °F 11.1 °F 26.6 °F 100% 29.72 in 10.0 mi NNW 26.5 mph 36.8 mph N/A   Overcast
1:55 PM 26.6 °F 11.1 °F 26.6 °F 100% 29.73 in 10.0 mi North 26.5 mph 33.4 mph N/A   Overcast
2:15 PM 26.6 °F 11.1 °F 26.6 °F 100% 29.74 in 10.0 mi North 26.5 mph 33.4 mph N/A   Overcast
2:35 PM 26.6 °F 11.7 °F 26.6 °F 100% 29.73 in 10.0 mi NNW 24.2 mph 28.8 mph N/A   Overcast
2:55 PM 26.6 °F 11.1 °F 26.6 °F 100% 29.74 in 10.0 mi NNW 26.5 mph 35.7 mph N/A   Overcast
3:15 PM 24.8 °F 7.3 °F 24.8 °F 100% 29.73 in 10.0 mi NNW 32.2 mph 40.3 mph N/A   Overcast
3:35 PM 26.6 °F 10.8 °F 26.6 °F 100% 29.74 in 10.0 mi NNW 27.6 mph 40.3 mph N/A   Overcast
3:55 PM 26.6 °F 11.1 °F 26.6 °F 100% 29.75 in 5.0 mi NNW 26.5 mph 35.7 mph N/A   Overcast
4:15 PM 26.6 °F 11.1 °F 26.6 °F 100% 29.76 in 3.0 mi NNW 26.5 mph 33.4 mph N/A   Overcast
4:35 PM 26.6 °F 11.7 °F 26.6 °F 100% 29.77 in 5.0 mi NNW 24.2 mph 32.2 mph N/A   Overcast
4:55 PM 26.6 °F 11.7 °F 26.6 °F 100% 29.78 in 5.0 mi NNW 24.2 mph 32.2 mph N/A   Overcast
5:15 PM 26.6 °F 11.7 °F 26.6 °F 100% 29.79 in 4.0 mi NNW 24.2 mph 33.4 mph N/A Rain Light Freezing Rain
5:35 PM 24.8 °F 9.6 °F 24.8 °F 100% 29.80 in 5.0 mi NW 23.0 mph 36.8 mph N/A Rain Light Freezing Rain
5:55 PM 24.8 °F 9.0 °F 24.8 °F 100% 29.81 in 10.0 mi NW 25.3 mph 34.5 mph N/A   Overcast
6:15 PM 23.0 °F 6.3 °F 23.0 °F 100% 29.82 in 9.0 mi NW 26.5 mph 35.7 mph N/A   Overcast
6:35 PM 23.0 °F 6.6 °F 23.0 °F 100% 29.83 in 10.0 mi NW 25.3 mph 33.4 mph N/A   Overcast
6:55 PM 23.0 °F 6.0 °F 23.0 °F 100% 29.84 in 10.0 mi NW 27.6 mph 36.8 mph N/A   Overcast
7:15 PM 23.0 °F 6.0 °F 23.0 °F 100% 29.84 in 10.0 mi NW 27.6 mph 34.5 mph N/A   Overcast
7:35 PM 23.0 °F 6.0 °F 21.2 °F 93% 29.85 in 10.0 mi NW 27.6 mph 33.4 mph N/A   Overcast
7:55 PM 23.0 °F 5.7 °F 21.2 °F 93% 29.85 in 10.0 mi NW 28.8 mph 38.0 mph N/A   Overcast
8:15 PM 21.2 °F 3.5 °F 21.2 °F 100% 29.85 in 10.0 mi NW 27.6 mph 35.7 mph N/A   Overcast
8:35 PM 21.2 °F 3.5 °F 21.2 °F 100% 29.86 in 10.0 mi NW 27.6 mph 34.5 mph N/A   Overcast
8:55 PM 21.2 °F 4.2 °F 21.2 °F 100% 29.86 in 10.0 mi NW 25.3 mph 31.1 mph N/A   Overcast
9:15 PM 21.2 °F 3.9 °F 21.2 °F 100% 29.87 in 10.0 mi NW 26.5 mph 33.4 mph N/A   Overcast
9:35 PM 21.2 °F 5.6 °F 19.4 °F 93% 29.88 in 10.0 mi NNW 20.7 mph 26.5 mph N/A   Overcast
9:55 PM 19.4 °F 3.2 °F 19.4 °F 100% 29.89 in 10.0 mi NNW 20.7 mph 26.5 mph N/A   Overcast
10:15 PM 19.4 °F 2.1 °F 19.4 °F 100% 29.89 in 10.0 mi NNW 24.2 mph 31.1 mph N/A   Overcast
10:35 PM 19.4 °F 1.4 °F 17.6 °F 93% 29.90 in 10.0 mi NNW 26.5 mph 33.4 mph N/A   Overcast
10:55 PM 19.4 °F 1.8 °F 19.4 °F 100% 29.91 in 9.0 mi NNW 25.3 mph 29.9 mph N/A   Overcast
11:15 PM 17.6 °F 0.5 °F 17.6 °F 100% 29.91 in 6.0 mi NNW 21.9 mph 27.6 mph N/A   Overcast
11:35 PM 17.6 °F 1.7 °F 17.6 °F 100% 29.92 in 9.0 mi NNW 18.4 mph 26.5 mph N/A   Overcast
11:55 PM 19.4 °F 4.1 °F 19.4 °F 100% 29.94 in 9.0 mi NNW 18.4 mph 24.2 mph N/A   Overcast